Regional Weather Roundup
Issued by NWS

Home | Current Version | Previous Version | Text Only | Print | Product List | Glossary Off
Versions: 1 2 3 4 5 6 7 8 9 10 11 12 13 14 15 16 17 18 19 20 21 22 23 24 25 26 27 28 29 30 31 32 33 34 35 36 37 38 39 40 41 42 43 44 45 46 47 48 49 50

000
ASUS45 KBOU 312210
RWRCO

WEATHER ROUNDUP FOR COLORADO
NATIONAL WEATHER SERVICE DENVER/BOULDER CO
400 PM MDT FRI JUL 31 2015

NOTE: "FAIR" INDICATES FEW OR NO CLOUDS BELOW 12000 FEET WITH NO
SIGNIFICANT WEATHER AND/OR OBSTRUCTIONS TO VISIBILITY.

COZ001>005-013-030-031-312300-
...NORTHWEST COLORADO...

CITY           SKY/WX    TMP DP  RH WIND       PRES   REMARKS
CRAIG          SUNNY     91  25   9 W8        30.26F
HAYDEN         SUNNY     88  27  11 W13G20    30.29F
MEEKER         SUNNY     90  24   9 W7        30.27F
MOUNT WERNER   NOT AVBL
STEAMBOAT SPGS SUNNY     86  29  12 W8        30.31F
WALDEN         MOSUNNY   77  25  14 N9        30.41F
$$

COZ006>008-011-312300-
...WEST CENTRAL VALLEYS...

CITY           SKY/WX    TMP DP  RH WIND       PRES   REMARKS
GRAND JUNCTION MOSUNNY   94  32  11 W13       30.15F
MONTROSE       PTSUNNY   87  38  17 W7        30.24F
EAGLE          MOSUNNY   88  30  12 SW8       30.27F
RIFLE          SUNNY     96  29   9 N5        30.18F
DELTA          PTSUNNY   97  34  11 SW6G18    30.17F
NUCLA          PTSUNNY   88  41  19 CALM      30.29F
$$

COZ017>023-064>068-312300-
...SOUTHWEST COLORADO...

CITY           SKY/WX    TMP DP  RH WIND       PRES   REMARKS
DURANGO        PTSUNNY   77  50  38 S8        30.36F
CORTEZ         PTSUNNY   83  52  34 MISG      30.28F
PAGOSA SPRINGS CLOUDY    70  51  49 NW7       30.44F
TELLURIDE      LGT RAIN  61  51  70 CALM      30.56S
WOLF CREEK PAS NOT AVBL
$$

COZ009-010-012-014-032>034-037-058>063-312300-
...CENTRAL COLORADO...

CITY           SKY/WX    TMP DP  RH WIND       PRES   REMARKS
ASPEN          PTSUNNY   72  43  35 SE10      30.42S
BUENA VISTA    CLOUDY    76  37  24 NW9       30.42F
COPPER MTN     CLOUDY    64  36  34 N6        30.76F
BERTHOUD PASS  PTSUNNY   48  37  66 E16G23    30.81F
COTTONWOOD PAS CLOUDY    70  37  30 CALM      30.59F
GUNNISON       PTSUNNY   73  43  33 SW5       30.43F
KREMMLING      SUNNY     90  23   9 NE7       30.35F
LEADVILLE      PTSUNNY   65  33  30 S13       30.57F
MONARCH PASS   CLOUDY    55  37  50 NE9       30.85F
SALIDA         NOT AVBL
SUNLIGHT       MOSUNNY   72  36  26 W5        30.68F
WILKERSON PASS TSTM      50  43  76 S9G20     30.74F
$$

COZ069>075-312300-
...SAN LUIS VALLEY/SANGRE DE CRISTO MOUNTAINS...

CITY           SKY/WX    TMP DP  RH WIND       PRES   REMARKS
ALAMOSA        PTSUNNY   74  47  38 E16G22    30.40S
LA VETA PASS   PTSUNNY   61  43  51 MISG      30.62F
SAGUACHE       PTSUNNY   79  45  29 S9        30.41F
$$

COZ035-036-038>040-312300-
...NORTHERN COLORADO FRONT RANGE...

CITY           SKY/WX    TMP DP  RH WIND       PRES   REMARKS
DENVER INTL AP PTSUNNY   90  45  21 SE16G22   30.25F
DMNS CITY PARK   N/A     87  47  24 S3G15     30.23F
AURORA         PTSUNNY   84  48  28 SE10      30.27F
FRONT RANGE AP PTSUNNY   86  45  23 SE8       30.26F
ERIE MUNI ARPT PTSUNNY   88  41  19 E8        30.21F
BOULDER MUN AP PTSUNNY   88  45  22 NE6       30.22F
CENTENNIAL     PTSUNNY   83  47  28 SE7       30.29F
BROOMFIELD     MOSUNNY   90  48  24 VRB10     30.26F
FORT COLLINS   MOSUNNY   91  48  22 S7        30.19F
LONGMONT       PTSUNNY   88  45  22 SE5       30.23F
$$

COZ041-046-047-076>085-087-088-312300-
...PIKES PEAK/PALMER DIVIDE AND SOUTHERN FOOTHILLS...

CITY           SKY/WX    TMP DP  RH WIND       PRES   REMARKS
COLO. SPRINGS  MOSUNNY   84  46  26 E10G16    30.32F
A. F. ACADEMY  MOSUNNY   82  47  29 SE10G16   30.33F
ELLICOTT       MOSUNNY  N/A N/A N/A SE9       30.30F
FALCON         MOSUNNY   81  47  29 E6        30.38F
FORT CARSON    MOSUNNY   82  48  30 CALM      30.28F
LIMON          SUNNY     83  51  33 MISG      30.27F
MONUMENT HILL  PTSUNNY   75  45  33 SE13      30.39F
TRINIDAD       MOSUNNY   86  51  29 NE12      30.26F
$$

COZ042>045-048>051-090-091-312300-
...NORTHEAST COLORADO...

CITY           SKY/WX    TMP DP  RH WIND       PRES   REMARKS
GREELEY ARPT   MOSUNNY   91  48  22 SE13      30.21F
AKRON          MOSUNNY   89  44  20 SE14G20   30.22F
BURLINGTON     SUNNY     87  54  32 S13       30.21F
WRAY           SUNNY     96  44  16 S3        30.16F
STERLING       SUNNY     91  54  27 SE13G18   30.16F
HOLYOKE        NOT AVBL
FORT MORGAN    SUNNY     91  40  16 SE9       30.21F
$$

COZ086-089-092>099-312300-
...SOUTHEAST COLORADO...

CITY           SKY/WX    TMP DP  RH WIND       PRES   REMARKS
PUEBLO         MOSUNNY   91  52  26 SE8G20    30.18F
LA JUNTA       SUNNY     89  57  33 SE10      30.17F
LAMAR          MOSUNNY   90  61  37 SE9       30.14F
SPRINGFIELD      N/A     78  64  61 SE10      30.21F
$$



USA.gov is the U.S. government's official web portal to all federal, state and local government web resources and services.